Home > Weather > Bata > Past weeks

Flag for Equatorial Guinea Weather for the Past 2 Weeks in Bata, Equatorial Guinea

Now
86 °F

Passing clouds.


Feels Like: 99 °F
Forecast: 80 / 87 °F
Wind: 8 mph from Southwest

Location: Libreville Airport

Current Time: May 5, 2016 at 5:41:29 PM

Latest Report: May 5, 2016 at 5:00 PM


Visibility: N/A

Pressure: 29.83 "Hg

Humidity: 79%

Dew Point: 79 °F

Location of BataLocation

Historic Weather in Bata — Graph

°F

Bata Temperature Yesterday

Maximum temperature yesterday: 84 °F (at 10:00 AM)
Minimum temperature yesterday: 79 °F (at 12:00 AM)
Average temperature yesterday: 82 °F

High & Low Weather Summary for the Past Weeks

 TemperatureHumidityPressure
High90 °F (Apr 25, 2:00 PM)100% (Apr 21, 1:00 AM)29.95 "Hg (Apr 21, 1:00 AM)
Low73 °F (Apr 23, 3:03 AM)63% (Apr 25, 2:00 PM)29.71 "Hg (Apr 23, 5:00 PM)
Average82 °F87%29.82 "Hg
* Reported Apr 20 4:00 PM — May 5 4:00 PM, Bata, Weather by CustomWeather, © 2016

Note: Actual official high and low records may vary slightly from our data, if they occured in-between our weather recording intervals... More about our weather records

Advertising

Bata Weather History for the Previous 24 Hours

Scroll right to see more
 ConditionsComfort  
Time TempWeatherWind HumidityBarometerVisibility
4:00 PM
Thu, May 5
88 °FPassing clouds.9 mph75%29.83 "HgN/A
3:00 PM88 °FPassing clouds.10 mph75%29.83 "HgN/A
2:00 PM90 °FPassing clouds.8 mph71%29.86 "HgN/A
1:00 PM88 °FPassing clouds.8 mph75%29.89 "HgN/A
12:00 PM88 °FPassing clouds.10 mph75%29.92 "HgN/A
11:00 AM88 °FPassing clouds.5 mph66%29.95 "HgN/A
10:00 AM86 °FPassing clouds.8 mph75%29.95 "HgN/A
9:00 AM84 °FPassing clouds.6 mph79%29.95 "Hg6 mi
8:00 AM82 °FPassing clouds.7 mph84%29.92 "Hg6 mi
7:00 AM81 °FPassing clouds.6 mph89%29.89 "Hg6 mi
6:00 AM81 °FPassing clouds.6 mph94%29.86 "Hg6 mi
5:00 AM81 °FPassing clouds.7 mph94%29.86 "Hg6 mi
4:00 AM82 °FPassing clouds.7 mph89%29.83 "Hg6 mi
3:00 AM82 °FPassing clouds.3 mph89%29.86 "HgN/A
2:00 AM82 °FPassing clouds.7 mph89%29.86 "HgN/A
1:00 AM82 °FPassing clouds.6 mph89%29.89 "HgN/A
12:00 AM82 °FPassing clouds.5 mph89%29.89 "HgN/A
11:00 PM
Wed, May 4
82 °FPassing clouds.5 mph84%29.89 "HgN/A
10:00 PM81 °FPassing clouds.1 mph94%29.89 "HgN/A
9:00 PM81 °FPassing clouds.No wind94%29.89 "HgN/A
8:00 PM82 °FPassing clouds.No wind84%29.89 "Hg6 mi
7:00 PM82 °FPassing clouds.3 mph84%29.83 "Hg6 mi
6:00 PM84 °FPassing clouds.3 mph79%29.83 "Hg6 mi
5:00 PM84 °FPassing clouds.3 mph79%29.83 "Hg6 mi
Weather by CustomWeather, © 2016

See weather overviewHow to use our weather pages